When you browse on this site, cookies collect data to enhance your experience and personalize the content and advertising you see.
Visit our Privacy Policy to learn more. By continuing to use the site, you agree to this use of cookies and data.
  • In United Kingdom
  • List of Countries
  • For 7 days
  • Water Temperature
  • Satellite Maps
  • Weather Map
  • Weather Widgets
  • user-avatar
    Login

    Hourly Weather Sarafovo

    Today, 24 April, Wednesday

    Time Temperature Precipitation Wind Pressure Humidity
    00:00 +9°C° 0 mm 3 mps 766 mmHg 75%
    01:00 +9°C° 0 mm 3 mps 766 mmHg 77%
    02:00 +8°C° 0 mm 3 mps 765 mmHg 78%
    03:00 +8°C° 0 mm 3 mps 765 mmHg 81%
    04:00 +8°C° 0 mm 3 mps 765 mmHg 83%
    05:00 +8°C° 0 mm 3 mps 765 mmHg 85%
    06:00 +9°C° 0 mm 3 mps 765 mmHg 81%
    07:00 +11°C° 0 mm 3 mps 765 mmHg 76%
    08:00 +13°C° 0 mm 4 mps 765 mmHg 72%
    09:00 +14°C° 0 mm 4 mps 765 mmHg 68%
    10:00 +15°C° 0 mm 4 mps 765 mmHg 63%
    11:00 +18°C° 0 mm 4 mps 765 mmHg 59%
    12:00 +18°C° 0 mm 4 mps 765 mmHg 59%
    13:00 +19°C° 0 mm 4 mps 765 mmHg 60%
    14:00 +19°C° 0 mm 5 mps 765 mmHg 60%
    15:00 +17°C° 0 mm 5 mps 765 mmHg 65%
    16:00 +16°C° 0 mm 5 mps 765 mmHg 70%
    17:00 +15°C° 0 mm 5 mps 765 mmHg 74%
    18:00 +13°C° 0 mm 4 mps 765 mmHg 80%
    19:00 +11°C° 0 mm 4 mps 765 mmHg 86%
    20:00 +10°C° 0 mm 3 mps 765 mmHg 92%
    21:00 +10°C° 0 mm 3 mps 765 mmHg 92%
    22:00 +9°C° 0 mm 3 mps 765 mmHg 93%
    23:00 +9°C° 0 mm 3 mps 766 mmHg 93%

    Tomorrow, 25 April, Thursday

    Time Temperature Precipitation Wind Pressure Humidity
    00:00 +9°C° 0 mm 3 mps 765 mmHg 93%
    01:00 +9°C° 0 mm 2 mps 765 mmHg 93%
    02:00 +9°C° 0 mm 2 mps 765 mmHg 93%
    03:00 +9°C° 0 mm 2 mps 765 mmHg 92%
    04:00 +9°C° 0 mm 2 mps 765 mmHg 92%
    05:00 +8°C° 0 mm 2 mps 765 mmHg 92%
    06:00 +10°C° 0 mm 2 mps 765 mmHg 86%
    07:00 +13°C° 0 mm 2 mps 765 mmHg 80%
    08:00 +14°C° 0 mm 2 mps 765 mmHg 74%
    09:00 +16°C° 0 mm 3 mps 765 mmHg 69%
    10:00 +17°C° 0 mm 3 mps 765 mmHg 64%
    11:00 +19°C° 0 mm 3 mps 765 mmHg 59%
    12:00 +19°C° 0 mm 4 mps 765 mmHg 58%
    13:00 +19°C° 0 mm 4 mps 765 mmHg 58%
    14:00 +19°C° 0 mm 5 mps 765 mmHg 58%
    15:00 +18°C° 0 mm 4 mps 764 mmHg 61%
    16:00 +17°C° 0 mm 4 mps 764 mmHg 64%
    17:00 +15°C° 0 mm 4 mps 764 mmHg 67%
    18:00 +13°C° 0 mm 3 mps 764 mmHg 75%
    19:00 +12°C° 0 mm 3 mps 764 mmHg 83%
    20:00 +10°C° 0 mm 2 mps 764 mmHg 90%
    21:00 +10°C° 0 mm 2 mps 764 mmHg 91%
    22:00 +9°C° 0 mm 2 mps 764 mmHg 91%
    23:00 +10°C° 0 mm 1 mps 764 mmHg 92%

    Day after tomorrow, 26 April, Friday

    Time Temperature Precipitation Wind Pressure Humidity
    00:00 +10°C° 0 mm 1 mps 764 mmHg 92%
    01:00 +10°C° 0 mm 1 mps 764 mmHg 91%
    02:00 +10°C° 0 mm 1 mps 763 mmHg 91%
    03:00 +10°C° 0 mm 1 mps 763 mmHg 91%
    04:00 +10°C° 0 mm 1 mps 763 mmHg 90%
    05:00 +10°C° 0 mm 1 mps 763 mmHg 90%
    06:00 +12°C° 0 mm 1 mps 763 mmHg 84%
    07:00 +13°C° 0 mm 1 mps 763 mmHg 78%
    08:00 +14°C° 0 mm 2 mps 763 mmHg 73%
    09:00 +16°C° 0 mm 2 mps 763 mmHg 67%
    10:00 +17°C° 0 mm 2 mps 763 mmHg 61%
    11:00 +19°C° 0 mm 3 mps 763 mmHg 56%
    12:00 +19°C° 0 mm 3 mps 763 mmHg 54%
    13:00 +19°C° 0 mm 4 mps 763 mmHg 53%
    14:00 +20°C° 0 mm 4 mps 762 mmHg 52%
    15:00 +19°C° 0 mm 4 mps 762 mmHg 55%
    16:00 +18°C° 0 mm 4 mps 762 mmHg 59%
    17:00 +17°C° 0 mm 4 mps 761 mmHg 62%
    18:00 +14°C° 0 mm 3 mps 762 mmHg 70%
    19:00 +12°C° 0 mm 3 mps 762 mmHg 79%
    20:00 +10°C° 0 mm 2 mps 762 mmHg 87%
    21:00 +9°C° 0 mm 2 mps 762 mmHg 88%
    22:00 +10°C° 0 mm 1 mps 762 mmHg 89%
    23:00 +10°C° 0 mm 1 mps 762 mmHg 89%

    27 April, Saturday

    Time Temperature Precipitation Wind Pressure Humidity
    00:00 +9°C° 0 mm 1 mps 762 mmHg 89%
    01:00 +9°C° 0 mm 1 mps 761 mmHg 89%
    02:00 +8°C° 0 mm 0 mps 761 mmHg 88%
    03:00 +8°C° 0 mm 0 mps 761 mmHg 88%
    04:00 +8°C° 0 mm 0 mps 760 mmHg 87%
    05:00 +8°C° 0 mm 0 mps 760 mmHg 86%
    06:00 +11°C° 0 mm 1 mps 760 mmHg 79%
    07:00 +13°C° 0 mm 1 mps 760 mmHg 73%
    08:00 +15°C° 0 mm 2 mps 760 mmHg 66%
    09:00 +16°C° 0 mm 2 mps 760 mmHg 61%
    10:00 +18°C° 0 mm 3 mps 760 mmHg 56%
    11:00 +19°C° 0 mm 3 mps 759 mmHg 52%
    12:00 +19°C° 0 mm 3 mps 759 mmHg 51%
    13:00 +20°C° 0 mm 4 mps 758 mmHg 51%
    14:00 +20°C° 0 mm 4 mps 758 mmHg 50%
    15:00 +19°C° 0 mm 4 mps 757 mmHg 54%
    16:00 +18°C° 0 mm 4 mps 757 mmHg 57%
    17:00 +17°C° 0 mm 4 mps 756 mmHg 60%
    18:00 +14°C° 0 mm 4 mps 756 mmHg 64%
    19:00 +13°C° 0 mm 3 mps 756 mmHg 68%
    20:00 +11°C° 0 mm 3 mps 756 mmHg 72%
    21:00 +12°C° 0 mm 2 mps 756 mmHg 73%
    22:00 +12°C° 0 mm 2 mps 756 mmHg 74%
    23:00 +12°C° 0 mm 2 mps 756 mmHg 74%

    28 April, Sunday

    Time Temperature Precipitation Wind Pressure Humidity
    00:00 +12°C° 0 mm 2 mps 756 mmHg 74%
    01:00 +12°C° 0 mm 1 mps 756 mmHg 74%
    02:00 +11°C° 0 mm 1 mps 755 mmHg 74%
    03:00 +11°C° 0 mm 1 mps 755 mmHg 74%
    04:00 +10°C° 0 mm 0 mps 755 mmHg 74%
    05:00 +10°C° 0 mm 0 mps 755 mmHg 74%
    06:00 +12°C° 0 mm 0 mps 755 mmHg 71%
    07:00 +14°C° 0 mm 1 mps 756 mmHg 67%
    08:00 +16°C° 0 mm 1 mps 756 mmHg 64%
    09:00 +19°C° 0 mm 1 mps 756 mmHg 63%
    10:00 +21°C° 0 mm 1 mps 756 mmHg 62%
    11:00 +23°C° 0 mm 1 mps 756 mmHg 61%
    12:00 +24°C° 0.3 mm 1 mps 756 mmHg 60%
    13:00 +24°C° 0.3 mm 1 mps 756 mmHg 58%
    14:00 +25°C° 0.3 mm 1 mps 755 mmHg 56%
    15:00 +24°C° 0.3 mm 1 mps 755 mmHg 58%
    16:00 +24°C° 0.3 mm 1 mps 755 mmHg 60%
    17:00 +23°C° 0.3 mm 1 mps 755 mmHg 63%
    18:00 +20°C° 0 mm 2 mps 755 mmHg 69%
    19:00 +18°C° 0 mm 2 mps 756 mmHg 75%
    20:00 +16°C° 0 mm 2 mps 756 mmHg 81%
    21:00 +16°C° 0 mm 1 mps 756 mmHg 82%
    22:00 +16°C° 0 mm 1 mps 756 mmHg 83%
    23:00 +15°C° 0 mm 1 mps 756 mmHg 83%

    29 April, Monday

    Time Temperature Precipitation Wind Pressure Humidity
    00:00 +15°C° 0 mm 1 mps 756 mmHg 84%
    01:00 +14°C° 0 mm 0 mps 756 mmHg 85%
    02:00 +13°C° 0 mm 0 mps 756 mmHg 86%
    03:00 +13°C° 0 mm 0 mps 756 mmHg 86%
    04:00 +13°C° 0 mm 0 mps 756 mmHg 86%
    05:00 +12°C° 0 mm 0 mps 756 mmHg 87%
    06:00 +15°C° 0 mm 1 mps 756 mmHg 82%
    07:00 +18°C° 0 mm 1 mps 756 mmHg 77%
    08:00 +19°C° 0 mm 1 mps 756 mmHg 72%
    09:00 +21°C° 0 mm 1 mps 756 mmHg 65%
    10:00 +23°C° 0 mm 2 mps 756 mmHg 59%
    11:00 +24°C° 0 mm 2 mps 756 mmHg 53%
    12:00 +25°C° 0 mm 3 mps 755 mmHg 52%
    13:00 +25°C° 0 mm 3 mps 755 mmHg 51%
    14:00 +25°C° 0 mm 4 mps 754 mmHg 50%
    15:00 +25°C° 0 mm 4 mps 754 mmHg 55%
    16:00 +23°C° 0 mm 4 mps 754 mmHg 59%
    17:00 +22°C° 0 mm 4 mps 753 mmHg 64%
    18:00 +20°C° 0 mm 3 mps 753 mmHg 70%
    19:00 +18°C° 0 mm 3 mps 753 mmHg 76%
    20:00 +17°C° 0 mm 3 mps 753 mmHg 82%
    21:00 +16°C° 0 mm 2 mps 753 mmHg 82%
    22:00 +16°C° 0 mm 2 mps 753 mmHg 82%
    23:00 +15°C° 0 mm 2 mps 753 mmHg 83%
    Show more